Location: Tucson
(32.2217°N, 110.9265°W)
Time: 08:00:15
(UTC-07:00)

Explorer 11/Cluster Stage 4 - Visible Passes

Search period start: 25 October 2021 00:00
Search period end: 04 November 2021 00:00
Orbit: 467 x 1256 km, 28.8° (Epoch: 24 October)

Date Brightness Start Highest point End Pass type
(mag) Time Alt. Az. Time Alt. Az. Time Alt. Az.
25 Oct 8.2 17:55:01 10° SSW 17:59:16 23° SSE 18:04:16 10° E visible
25 Oct 7.3 19:41:29 10° WSW 19:47:26 53° SSE 19:47:47 53° SSE visible
25 Oct 9.6 21:29:28 10° W 21:29:53 12° W 21:29:53 12° W visible
26 Oct 7.2 19:30:22 10° WSW 19:36:07 56° SSE 19:37:10 50° SE visible
26 Oct 9.4 21:18:20 10° W 21:19:15 15° W 21:19:15 15° W visible
27 Oct 7.1 19:19:17 10° WSW 19:24:49 58° S 19:26:30 45° ESE visible
27 Oct 9.2 21:07:13 10° W 21:08:36 18° W 21:08:36 18° W visible
28 Oct 7.0 19:08:12 10° WSW 19:13:34 59° S 19:15:51 38° ESE visible
28 Oct 9.0 20:56:08 10° W 20:57:56 21° W 20:57:56 21° W visible
29 Oct 6.9 18:57:09 10° WSW 19:02:19 61° S 19:05:10 32° ESE visible
29 Oct 8.7 20:45:04 10° W 20:47:16 24° W 20:47:16 24° W visible
30 Oct 6.8 18:46:08 10° WSW 18:51:06 61° S 18:54:30 26° ESE visible
30 Oct 8.5 20:34:01 10° W 20:36:37 28° WSW 20:36:37 28° WSW visible
31 Oct 6.7 18:35:08 10° WSW 18:39:54 61° S 18:43:51 21° ESE visible
31 Oct 8.2 20:23:00 10° W 20:25:58 32° WSW 20:25:58 32° WSW visible
01 Nov 6.7 18:24:08 10° WSW 18:28:43 60° S 18:33:15 16° ESE visible
01 Nov 7.9 20:12:00 10° W 20:15:22 35° WSW 20:15:22 35° WSW visible
02 Nov 6.7 18:13:09 10° W 18:17:33 58° S 18:22:42 12° ESE visible
02 Nov 7.7 20:01:03 10° W 20:04:48 37° SW 20:04:48 37° SW visible
03 Nov 6.7 18:02:10 10° W 18:06:24 56° S 18:11:39 10° ESE visible
03 Nov 7.6 19:50:07 10° W 19:54:18 36° SSW 19:54:18 36° SSW visible
